contact:dominique.lefevre@mio.osupytheas.fr, maurice.libes@osupytheas.fr, didier.mallarino@osupytheas.fr
Project:EMSO http://www.emso-fr.org/EMSO-France
Depth: 2436.0 m
Title:EMSO Ligure Ouest : Data MII capteur MICROCAT
DateTime_Computer,Latitude,Longitude,Temperature,Conductivity,Pressure,DateTime_Instrument
DateTime_Computer,Latitude,Longitude,degC,S m-1,dbar,DateTime_Instrument
2023-12-29T00:02:17Z,42.805,6.029,13.3069,4.60172,2470.777,2023-12-29T02:04:48Z
2023-12-29T00:05:20Z,42.805,6.029,13.3085,4.60144,2470.74,2023-12-29T02:07:51Z
2023-12-29T00:08:23Z,42.805,6.029,13.3092,4.60140,2470.754,2023-12-29T02:10:54Z
2023-12-29T00:11:26Z,42.805,6.029,13.3103,4.60135,2470.787,2023-12-29T02:13:57Z
2023-12-29T00:14:29Z,42.805,6.029,13.3108,4.60131,2470.763,2023-12-29T02:17:00Z
2023-12-29T00:17:32Z,42.805,6.029,13.3107,4.60149,2470.787,2023-12-29T02:20:03Z
2023-12-29T00:20:35Z,42.805,6.029,13.3125,4.60149,2470.754,2023-12-29T02:23:06Z
2023-12-29T00:23:38Z,42.805,6.029,13.3109,4.60138,2470.777,2023-12-29T02:26:09Z
2023-12-29T00:26:41Z,42.805,6.029,13.3114,4.60140,2470.763,2023-12-29T02:29:12Z
2023-12-29T00:29:44Z,42.805,6.029,13.3095,4.60152,2470.754,2023-12-29T02:32:15Z
2023-12-29T00:32:48Z,42.805,6.029,13.3118,4.60140,2470.763,2023-12-29T02:35:19Z
2023-12-29T00:35:51Z,42.805,6.029,13.3126,4.60150,2470.754,2023-12-29T02:38:22Z
2023-12-29T00:38:54Z,42.805,6.029,13.3120,4.60149,2470.777,2023-12-29T02:41:25Z
2023-12-29T00:41:57Z,42.805,6.029,13.3123,4.60145,2470.74,2023-12-29T02:44:28Z
2023-12-29T00:45:00Z,42.805,6.029,13.3104,4.60155,2470.8,2023-12-29T02:47:31Z
2023-12-29T00:48:03Z,42.805,6.029,13.3075,4.60157,2470.777,2023-12-29T02:50:34Z
2023-12-29T00:51:06Z,42.805,6.029,13.3070,4.60155,2470.74,2023-12-29T02:53:37Z
2023-12-29T00:54:09Z,42.805,6.029,13.3086,4.60167,2470.74,2023-12-29T02:56:40Z
2023-12-29T00:57:12Z,42.805,6.029,13.3103,4.60135,2470.717,2023-12-29T02:59:43Z
2023-12-29T01:00:15Z,42.805,6.029,13.3123,4.60132,2470.777,2023-12-29T03:02:46Z
2023-12-29T01:03:18Z,42.805,6.029,13.3091,4.60140,2470.73,2023-12-29T03:05:49Z
2023-12-29T01:06:21Z,42.805,6.029,13.3083,4.60152,2470.754,2023-12-29T03:08:52Z
2023-12-29T01:09:25Z,42.805,6.029,13.3092,4.60170,2470.74,2023-12-29T03:11:55Z
2023-12-29T01:12:28Z,42.805,6.029,13.3094,4.60169,2470.717,2023-12-29T03:14:59Z
2023-12-29T01:15:31Z,42.805,6.029,13.3068,4.60198,2470.73,2023-12-29T03:18:02Z
2023-12-29T01:18:34Z,42.805,6.029,13.3078,4.60167,2470.74,2023-12-29T03:21:05Z
2023-12-29T01:21:37Z,42.805,6.029,13.3093,4.60159,2470.74,2023-12-29T03:24:08Z
2023-12-29T01:24:40Z,42.805,6.029,13.3091,4.60139,2470.717,2023-12-29T03:27:11Z
2023-12-29T01:27:43Z,42.805,6.029,13.3073,4.60150,2470.74,2023-12-29T03:30:14Z
2023-12-29T01:30:46Z,42.805,6.029,13.3073,4.60144,2470.754,2023-12-29T03:33:17Z
2023-12-29T01:33:49Z,42.805,6.029,13.3076,4.60160,2470.717,2023-12-29T03:36:20Z
2023-12-29T01:36:52Z,42.805,6.029,13.3083,4.60162,2470.693,2023-12-29T03:39:23Z
2023-12-29T01:39:55Z,42.805,6.029,13.3046,4.60173,2470.73,2023-12-29T03:42:26Z
2023-12-29T01:42:58Z,42.805,6.029,13.3070,4.60150,2470.754,2023-12-29T03:45:29Z
2023-12-29T01:46:02Z,42.805,6.029,13.3081,4.60144,2470.73,2023-12-29T03:48:33Z
2023-12-29T01:49:05Z,42.805,6.029,13.3081,4.60142,2470.754,2023-12-29T03:51:36Z
2023-12-29T01:52:08Z,42.805,6.029,13.3082,4.60139,2470.754,2023-12-29T03:54:39Z
2023-12-29T01:55:11Z,42.805,6.029,13.3084,4.60173,2470.754,2023-12-29T03:57:42Z
2023-12-29T01:58:14Z,42.805,6.029,13.3089,4.60155,2470.73,2023-12-29T04:00:45Z
2023-12-29T02:01:17Z,42.805,6.029,13.3090,4.60134,2470.754,2023-12-29T04:03:48Z
2023-12-29T02:04:20Z,42.805,6.029,13.3093,4.60122,2470.74,2023-12-29T04:06:51Z
2023-12-29T02:07:23Z,42.805,6.029,13.3095,4.60160,2470.777,2023-12-29T04:09:54Z
2023-12-29T02:10:26Z,42.805,6.029,13.3091,4.60152,2470.74,2023-12-29T04:12:57Z
2023-12-29T02:13:29Z,42.805,6.029,13.3079,4.60144,2470.74,2023-12-29T04:16:00Z
2023-12-29T02:16:32Z,42.805,6.029,13.3078,4.60150,2470.74,2023-12-29T04:19:03Z
2023-12-29T02:19:35Z,42.805,6.029,13.3069,4.60142,2470.73,2023-12-29T04:22:06Z
2023-12-29T02:22:39Z,42.805,6.029,13.3077,4.60136,2470.754,2023-12-29T04:25:09Z
2023-12-29T02:25:42Z,42.805,6.029,13.3072,4.60144,2470.754,2023-12-29T04:28:13Z
2023-12-29T02:28:45Z,42.805,6.029,13.3068,4.60138,2470.754,2023-12-29T04:31:16Z
2023-12-29T02:31:48Z,42.805,6.029,13.3069,4.60147,2470.707,2023-12-29T04:34:19Z
2023-12-29T02:34:51Z,42.805,6.029,13.3076,4.60134,2470.684,2023-12-29T04:37:22Z
2023-12-29T02:37:54Z,42.805,6.029,13.3070,4.60150,2470.717,2023-12-29T04:40:25Z
2023-12-29T02:40:57Z,42.805,6.029,13.3077,4.60186,2470.754,2023-12-29T04:43:28Z
2023-12-29T02:44:00Z,42.805,6.029,13.3083,4.60215,2470.693,2023-12-29T04:46:31Z
2023-12-29T02:47:03Z,42.805,6.029,13.3087,4.60144,2470.717,2023-12-29T04:49:34Z
2023-12-29T02:50:06Z,42.805,6.029,13.3101,4.60155,2470.717,2023-12-29T04:52:37Z
2023-12-29T02:53:09Z,42.805,6.029,13.3094,4.60157,2470.754,2023-12-29T04:55:40Z
2023-12-29T02:56:12Z,42.805,6.029,13.3104,4.60159,2470.74,2023-12-29T04:58:43Z
2023-12-29T02:59:16Z,42.805,6.029,13.3111,4.60157,2470.73,2023-12-29T05:01:47Z
2023-12-29T03:02:19Z,42.805,6.029,13.3095,4.60160,2470.73,2023-12-29T05:04:50Z
2023-12-29T03:05:22Z,42.805,6.029,13.3092,4.60162,2470.73,2023-12-29T05:07:53Z
2023-12-29T03:08:25Z,42.805,6.029,13.3097,4.60157,2470.74,2023-12-29T05:10:56Z
2023-12-29T03:11:28Z,42.805,6.029,13.3095,4.60167,2470.754,2023-12-29T05:13:59Z
2023-12-29T03:14:31Z,42.805,6.029,13.3097,4.60162,2470.717,2023-12-29T05:17:02Z
2023-12-29T03:17:34Z,42.805,6.029,13.3112,4.60162,2470.73,2023-12-29T05:20:05Z
2023-12-29T03:20:37Z,42.805,6.029,13.3101,4.60162,2470.717,2023-12-29T05:23:08Z
2023-12-29T03:23:40Z,42.805,6.029,13.3113,4.60152,2470.754,2023-12-29T05:26:11Z
2023-12-29T03:26:43Z,42.805,6.029,13.3109,4.60156,2470.693,2023-12-29T05:29:14Z
2023-12-29T03:29:46Z,42.805,6.029,13.3113,4.60167,2470.777,2023-12-29T05:32:17Z
2023-12-29T03:32:49Z,42.805,6.029,13.3123,4.60170,2470.717,2023-12-29T05:35:20Z
2023-12-29T03:35:53Z,42.805,6.029,13.3114,4.60165,2470.74,2023-12-29T05:38:23Z
2023-12-29T03:38:56Z,42.805,6.029,13.3112,4.60182,2470.754,2023-12-29T05:41:27Z
2023-12-29T03:41:59Z,42.805,6.029,13.3109,4.60155,2470.777,2023-12-29T05:44:30Z
2023-12-29T03:45:02Z,42.805,6.029,13.3120,4.60167,2470.73,2023-12-29T05:47:33Z
2023-12-29T03:48:05Z,42.805,6.029,13.3119,4.60155,2470.74,2023-12-29T05:50:36Z
2023-12-29T03:51:08Z,42.805,6.029,13.3119,4.60162,2470.754,2023-12-29T05:53:39Z
2023-12-29T03:54:11Z,42.805,6.029,13.3111,4.60156,2470.754,2023-12-29T05:56:42Z
2023-12-29T03:57:14Z,42.805,6.029,13.3118,4.60182,2470.754,2023-12-29T05:59:45Z
2023-12-29T04:00:17Z,42.805,6.029,13.3120,4.60174,2470.768,2023-12-29T06:02:48Z
2023-12-29T04:03:20Z,42.805,6.029,13.3112,4.60170,2470.777,2023-12-29T06:05:51Z
2023-12-29T04:06:23Z,42.805,6.029,13.3112,4.60178,2470.754,2023-12-29T06:08:54Z
2023-12-29T04:09:26Z,42.805,6.029,13.3114,4.60183,2470.74,2023-12-29T06:11:57Z
2023-12-29T04:12:30Z,42.805,6.029,13.3108,4.60178,2470.74,2023-12-29T06:15:01Z
2023-12-29T04:15:33Z,42.805,6.029,13.3115,4.60170,2470.717,2023-12-29T06:18:04Z
2023-12-29T04:18:36Z,42.805,6.029,13.3109,4.60155,2470.754,2023-12-29T06:21:07Z
2023-12-29T04:21:39Z,42.805,6.029,13.3096,4.60154,2470.763,2023-12-29T06:24:10Z
2023-12-29T04:24:42Z,42.805,6.029,13.3104,4.60160,2470.787,2023-12-29T06:27:13Z
2023-12-29T04:27:45Z,42.805,6.029,13.3096,4.60137,2470.74,2023-12-29T06:30:16Z
2023-12-29T04:30:48Z,42.805,6.029,13.3088,4.60143,2470.787,2023-12-29T06:33:19Z
2023-12-29T04:33:51Z,42.805,6.029,13.3100,4.60131,2470.763,2023-12-29T06:36:22Z
2023-12-29T04:36:54Z,42.805,6.029,13.3091,4.60147,2470.777,2023-12-29T06:39:25Z
2023-12-29T04:39:57Z,42.805,6.029,13.3106,4.60172,2470.777,2023-12-29T06:42:28Z
2023-12-29T04:43:00Z,42.805,6.029,13.3113,4.60135,2470.777,2023-12-29T06:45:31Z
2023-12-29T04:46:03Z,42.805,6.029,13.3116,4.60184,2470.763,2023-12-29T06:48:34Z
2023-12-29T04:49:06Z,42.805,6.029,13.3103,4.60141,2470.81,2023-12-29T06:51:37Z
2023-12-29T04:52:10Z,42.805,6.029,13.3104,4.60140,2470.777,2023-12-29T06:54:41Z
2023-12-29T04:55:13Z,42.805,6.029,13.3101,4.60141,2470.787,2023-12-29T06:57:44Z
2023-12-29T04:58:16Z,42.805,6.029,13.3097,4.60181,2470.787,2023-12-29T07:00:47Z
2023-12-29T05:01:19Z,42.805,6.029,13.3091,4.60174,2470.8,2023-12-29T07:03:50Z
2023-12-29T05:04:22Z,42.805,6.029,13.3098,4.60170,2470.787,2023-12-29T07:06:53Z
2023-12-29T05:07:25Z,42.805,6.029,13.3096,4.60160,2470.81,2023-12-29T07:09:56Z
2023-12-29T05:10:28Z,42.805,6.029,13.3098,4.60164,2470.81,2023-12-29T07:12:59Z
2023-12-29T05:13:31Z,42.805,6.029,13.3111,4.60165,2470.787,2023-12-29T07:16:02Z
2023-12-29T05:16:34Z,42.805,6.029,13.3104,4.60147,2470.8,2023-12-29T07:19:05Z
2023-12-29T05:19:37Z,42.805,6.029,13.3106,4.60144,2470.81,2023-12-29T07:22:08Z
2023-12-29T05:22:40Z,42.805,6.029,13.3109,4.60135,2470.824,2023-12-29T07:25:11Z
2023-12-29T05:25:44Z,42.805,6.029,13.3099,4.60185,2470.8,2023-12-29T07:28:14Z
2023-12-29T05:28:47Z,42.805,6.029,13.3103,4.60184,2470.787,2023-12-29T07:31:18Z
2023-12-29T05:31:50Z,42.805,6.029,13.3107,4.60208,2470.824,2023-12-29T07:34:21Z
2023-12-29T05:34:54Z,42.805,6.029,13.3093,4.60208,2470.8,2023-12-29T07:37:25Z
2023-12-29T05:37:57Z,42.805,6.029,13.3073,4.60179,2470.833,2023-12-29T07:40:28Z
2023-12-29T05:41:00Z,42.805,6.029,13.3080,4.60174,2470.824,2023-12-29T07:43:31Z
2023-12-29T05:44:03Z,42.805,6.029,13.3094,4.60190,2470.857,2023-12-29T07:46:34Z
2023-12-29T05:47:06Z,42.805,6.029,13.3101,4.60150,2470.871,2023-12-29T07:49:37Z
2023-12-29T05:50:09Z,42.805,6.029,13.3087,4.60198,2470.833,2023-12-29T07:52:40Z
2023-12-29T05:53:12Z,42.805,6.029,13.3096,4.60186,2470.871,2023-12-29T07:55:43Z
2023-12-29T05:56:15Z,42.805,6.029,13.3084,4.60184,2470.833,2023-12-29T07:58:46Z
2023-12-29T05:59:18Z,42.805,6.029,13.3085,4.60177,2470.847,2023-12-29T08:01:49Z
2023-12-29T06:02:21Z,42.805,6.029,13.3082,4.60145,2470.871,2023-12-29T08:04:52Z
2023-12-29T06:05:24Z,42.805,6.029,13.3078,4.60183,2470.833,2023-12-29T08:07:55Z
2023-12-29T06:08:27Z,42.805,6.029,13.3075,4.60146,2470.833,2023-12-29T08:10:58Z
2023-12-29T06:11:31Z,42.805,6.029,13.3088,4.60162,2470.894,2023-12-29T08:14:02Z
2023-12-29T06:14:34Z,42.805,6.029,13.3096,4.60164,2470.88,2023-12-29T08:17:05Z
2023-12-29T06:17:37Z,42.805,6.029,13.3090,4.60162,2470.871,2023-12-29T08:20:08Z
2023-12-29T06:20:40Z,42.805,6.029,13.3093,4.60145,2470.894,2023-12-29T08:23:11Z
2023-12-29T06:23:43Z,42.805,6.029,13.3101,4.60167,2470.871,2023-12-29T08:26:14Z
2023-12-29T06:26:46Z,42.805,6.029,13.3104,4.60158,2470.894,2023-12-29T08:29:17Z
2023-12-29T06:29:49Z,42.805,6.029,13.3085,4.60137,2470.904,2023-12-29T08:32:20Z
2023-12-29T06:32:52Z,42.805,6.029,13.3077,4.60145,2470.894,2023-12-29T08:35:23Z
2023-12-29T06:35:55Z,42.805,6.029,13.3065,4.60147,2470.904,2023-12-29T08:38:26Z
2023-12-29T06:38:58Z,42.805,6.029,13.3062,4.60166,2470.927,2023-12-29T08:41:29Z
2023-12-29T06:42:01Z,42.805,6.029,13.3091,4.60152,2470.94,2023-12-29T08:44:32Z
2023-12-29T06:45:04Z,42.805,6.029,13.3106,4.60145,2470.917,2023-12-29T08:47:35Z
2023-12-29T06:48:08Z,42.805,6.029,13.3079,4.60141,2470.917,2023-12-29T08:50:39Z
2023-12-29T06:51:11Z,42.805,6.029,13.3081,4.60151,2470.927,2023-12-29T08:53:42Z
2023-12-29T06:54:14Z,42.805,6.029,13.3083,4.60145,2470.94,2023-12-29T08:56:45Z
2023-12-29T06:57:17Z,42.805,6.029,13.3091,4.60138,2470.927,2023-12-29T08:59:48Z
2023-12-29T07:00:20Z,42.805,6.029,13.3091,4.60162,2470.917,2023-12-29T09:02:51Z
2023-12-29T07:03:23Z,42.805,6.029,13.3078,4.60149,2470.94,2023-12-29T09:05:54Z
2023-12-29T07:06:26Z,42.805,6.029,13.3084,4.60196,2470.954,2023-12-29T09:08:57Z
2023-12-29T07:09:29Z,42.805,6.029,13.3075,4.60175,2470.927,2023-12-29T09:12:00Z
2023-12-29T07:12:32Z,42.805,6.029,13.3082,4.60155,2470.917,2023-12-29T09:15:03Z
2023-12-29T07:15:35Z,42.805,6.029,13.3089,4.60128,2470.964,2023-12-29T09:18:06Z
2023-12-29T07:18:38Z,42.805,6.029,13.3074,4.60148,2470.904,2023-12-29T09:21:09Z
2023-12-29T07:21:41Z,42.805,6.029,13.3091,4.60154,2470.927,2023-12-29T09:24:12Z
2023-12-29T07:24:45Z,42.805,6.029,13.3113,4.60150,2470.94,2023-12-29T09:27:15Z
2023-12-29T07:27:48Z,42.805,6.029,13.3094,4.60144,2470.964,2023-12-29T09:30:19Z
2023-12-29T07:30:51Z,42.805,6.029,13.3101,4.60148,2470.964,2023-12-29T09:33:22Z
2023-12-29T07:33:54Z,42.805,6.029,13.3102,4.60132,2470.964,2023-12-29T09:36:25Z
2023-12-29T07:36:57Z,42.805,6.029,13.3096,4.60139,2470.95,2023-12-29T09:39:28Z
2023-12-29T07:40:00Z,42.805,6.029,13.3097,4.60139,2470.95,2023-12-29T09:42:31Z
2023-12-29T07:43:03Z,42.805,6.029,13.3098,4.60140,2470.964,2023-12-29T09:45:34Z
2023-12-29T07:46:06Z,42.805,6.029,13.3091,4.60160,2470.964,2023-12-29T09:48:37Z
2023-12-29T07:49:09Z,42.805,6.029,13.3100,4.60169,2470.997,2023-12-29T09:51:40Z
2023-12-29T07:52:12Z,42.805,6.029,13.3082,4.60160,2470.95,2023-12-29T09:54:43Z
2023-12-29T07:55:15Z,42.805,6.029,13.3085,4.60167,2470.987,2023-12-29T09:57:46Z
2023-12-29T07:58:18Z,42.805,6.029,13.3098,4.60149,2470.973,2023-12-29T10:00:49Z
2023-12-29T08:01:22Z,42.805,6.029,13.3084,4.60149,2470.987,2023-12-29T10:03:53Z
2023-12-29T08:04:25Z,42.805,6.029,13.3093,4.60161,2470.997,2023-12-29T10:06:56Z
2023-12-29T08:07:28Z,42.805,6.029,13.3088,4.60159,2470.973,2023-12-29T10:09:59Z
2023-12-29T08:10:31Z,42.805,6.029,13.3092,4.60148,2470.997,2023-12-29T10:13:02Z
2023-12-29T08:13:34Z,42.805,6.029,13.3089,4.60158,2470.987,2023-12-29T10:16:05Z
2023-12-29T08:16:37Z,42.805,6.029,13.3086,4.60147,2470.973,2023-12-29T10:19:08Z
2023-12-29T08:19:40Z,42.805,6.029,13.3080,4.60149,2470.964,2023-12-29T10:22:11Z
2023-12-29T08:22:43Z,42.805,6.029,13.3089,4.60154,2471.01,2023-12-29T10:25:14Z
2023-12-29T08:25:46Z,42.805,6.029,13.3087,4.60158,2470.987,2023-12-29T10:28:17Z
2023-12-29T08:28:49Z,42.805,6.029,13.3087,4.60166,2470.997,2023-12-29T10:31:20Z
2023-12-29T08:31:52Z,42.805,6.029,13.3116,4.60157,2470.973,2023-12-29T10:34:23Z
2023-12-29T08:34:55Z,42.805,6.029,13.3089,4.60157,2470.973,2023-12-29T10:37:26Z
2023-12-29T08:37:59Z,42.805,6.029,13.3104,4.60150,2470.987,2023-12-29T10:40:30Z
2023-12-29T08:41:02Z,42.805,6.029,13.3101,4.60165,2470.973,2023-12-29T10:43:33Z
2023-12-29T08:44:05Z,42.805,6.029,13.3074,4.60149,2470.964,2023-12-29T10:46:36Z
2023-12-29T08:47:08Z,42.805,6.029,13.3076,4.60157,2470.987,2023-12-29T10:49:39Z
2023-12-29T08:50:11Z,42.805,6.029,13.3085,4.60152,2471.01,2023-12-29T10:52:42Z
2023-12-29T08:53:14Z,42.805,6.029,13.3101,4.60157,2471.034,2023-12-29T10:55:45Z
2023-12-29T08:56:17Z,42.805,6.029,13.3084,4.60160,2470.987,2023-12-29T10:58:48Z
2023-12-29T08:59:20Z,42.805,6.029,13.3096,4.60144,2471.02,2023-12-29T11:01:51Z
2023-12-29T09:02:23Z,42.805,6.029,13.3072,4.60156,2470.964,2023-12-29T11:04:54Z
2023-12-29T09:05:26Z,42.805,6.029,13.3084,4.60160,2470.997,2023-12-29T11:07:57Z
2023-12-29T09:08:29Z,42.805,6.029,13.3096,4.60161,2470.997,2023-12-29T11:11:00Z
2023-12-29T09:11:33Z,42.805,6.029,13.3089,4.60156,2470.987,2023-12-29T11:14:03Z
2023-12-29T09:14:36Z,42.805,6.029,13.3082,4.60157,2470.973,2023-12-29T11:17:07Z
2023-12-29T09:17:39Z,42.805,6.029,13.3087,4.60155,2470.973,2023-12-29T11:20:10Z
2023-12-29T09:20:42Z,42.805,6.029,13.3077,4.60166,2470.987,2023-12-29T11:23:13Z
2023-12-29T09:23:45Z,42.805,6.029,13.3082,4.60156,2470.997,2023-12-29T11:26:16Z
2023-12-29T09:26:48Z,42.805,6.029,13.3082,4.60144,2470.987,2023-12-29T11:29:19Z
2023-12-29T09:29:51Z,42.805,6.029,13.3074,4.60145,2471.01,2023-12-29T11:32:22Z
2023-12-29T09:32:54Z,42.805,6.029,13.3083,4.60157,2470.987,2023-12-29T11:35:25Z
2023-12-29T09:35:57Z,42.805,6.029,13.3079,4.60169,2470.95,2023-12-29T11:38:28Z
2023-12-29T09:39:00Z,42.805,6.029,13.3071,4.60157,2471.01,2023-12-29T11:41:31Z
2023-12-29T09:42:03Z,42.805,6.029,13.3081,4.60155,2470.987,2023-12-29T11:44:34Z
2023-12-29T09:45:06Z,42.805,6.029,13.3070,4.60158,2470.997,2023-12-29T11:47:37Z
2023-12-29T09:48:10Z,42.805,6.029,13.3116,4.60140,2470.973,2023-12-29T11:50:41Z
2023-12-29T09:51:13Z,42.805,6.029,13.3074,4.60155,2470.973,2023-12-29T11:53:44Z
2023-12-29T09:54:16Z,42.805,6.029,13.3093,4.60157,2470.987,2023-12-29T11:56:47Z
2023-12-29T09:57:19Z,42.805,6.029,13.3060,4.60155,2470.997,2023-12-29T11:59:50Z
2023-12-29T10:00:22Z,42.805,6.029,13.3100,4.60162,2470.997,2023-12-29T12:02:53Z
2023-12-29T10:03:25Z,42.805,6.029,13.3087,4.60162,2470.997,2023-12-29T12:05:56Z
2023-12-29T10:06:28Z,42.805,6.029,13.3083,4.60162,2470.964,2023-12-29T12:08:59Z
2023-12-29T10:09:31Z,42.805,6.029,13.3093,4.60155,2470.997,2023-12-29T12:12:02Z
2023-12-29T10:12:34Z,42.805,6.029,13.3091,4.60164,2470.973,2023-12-29T12:15:05Z
2023-12-29T10:15:37Z,42.805,6.029,13.3085,4.60162,2470.964,2023-12-29T12:18:08Z
2023-12-29T10:18:40Z,42.805,6.029,13.3062,4.60154,2470.997,2023-12-29T12:21:11Z
2023-12-29T10:21:44Z,42.805,6.029,13.3039,4.60167,2470.987,2023-12-29T12:24:15Z
2023-12-29T10:24:47Z,42.805,6.029,13.3039,4.60149,2470.987,2023-12-29T12:27:18Z
2023-12-29T10:27:50Z,42.805,6.029,13.3042,4.60151,2470.95,2023-12-29T12:30:21Z
2023-12-29T10:30:53Z,42.805,6.029,13.3077,4.60141,2470.964,2023-12-29T12:33:24Z
2023-12-29T10:33:56Z,42.805,6.029,13.3078,4.60145,2470.964,2023-12-29T12:36:27Z
2023-12-29T10:36:59Z,42.805,6.029,13.3093,4.60154,2470.973,2023-12-29T12:39:30Z
2023-12-29T10:40:02Z,42.805,6.029,13.3038,4.60149,2470.95,2023-12-29T12:42:33Z
2023-12-29T10:43:05Z,42.805,6.029,13.3113,4.60151,2470.973,2023-12-29T12:45:36Z
2023-12-29T10:46:08Z,42.805,6.029,13.3058,4.60157,2470.927,2023-12-29T12:48:39Z
2023-12-29T10:49:11Z,42.805,6.029,13.3056,4.60162,2470.95,2023-12-29T12:51:42Z
2023-12-29T10:52:14Z,42.805,6.029,13.3037,4.60157,2470.94,2023-12-29T12:54:45Z
2023-12-29T10:55:18Z,42.805,6.029,13.3043,4.60157,2470.973,2023-12-29T12:57:49Z
2023-12-29T10:58:21Z,42.805,6.029,13.3035,4.60160,2470.95,2023-12-29T13:00:52Z
2023-12-29T11:01:24Z,42.805,6.029,13.3034,4.60147,2470.95,2023-12-29T13:03:55Z
2023-12-29T11:04:27Z,42.805,6.029,13.3036,4.60140,2470.987,2023-12-29T13:06:58Z
2023-12-29T11:07:30Z,42.805,6.029,13.3032,4.60133,2470.987,2023-12-29T13:10:01Z
2023-12-29T11:10:33Z,42.805,6.029,13.3032,4.60150,2470.95,2023-12-29T13:13:04Z
2023-12-29T11:13:36Z,42.805,6.029,13.3035,4.60132,2470.973,2023-12-29T13:16:07Z
2023-12-29T11:16:39Z,42.805,6.029,13.3034,4.60139,2470.95,2023-12-29T13:19:10Z
2023-12-29T11:19:42Z,42.805,6.029,13.3034,4.60140,2470.927,2023-12-29T13:22:13Z
2023-12-29T11:22:45Z,42.805,6.029,13.3034,4.60135,2470.964,2023-12-29T13:25:16Z
2023-12-29T11:25:48Z,42.805,6.029,13.3039,4.60140,2470.927,2023-12-29T13:28:19Z
2023-12-29T11:28:51Z,42.805,6.029,13.3034,4.60134,2470.95,2023-12-29T13:31:22Z
2023-12-29T11:31:56Z,42.805,6.029,13.3038,4.60135,2470.964,2023-12-29T13:34:27Z
2023-12-29T11:34:59Z,42.805,6.029,13.3036,4.60146,2470.95,2023-12-29T13:37:30Z
2023-12-29T11:38:02Z,42.805,6.029,13.3037,4.60132,2470.95,2023-12-29T13:40:33Z
2023-12-29T11:41:05Z,42.805,6.029,13.3053,4.60132,2470.904,2023-12-29T13:43:36Z
2023-12-29T11:44:09Z,42.805,6.029,13.3034,4.60147,2470.94,2023-12-29T13:46:40Z
2023-12-29T11:47:12Z,42.805,6.029,13.3038,4.60150,2470.95,2023-12-29T13:49:43Z
2023-12-29T11:50:15Z,42.805,6.029,13.3037,4.60138,2470.927,2023-12-29T13:52:46Z
2023-12-29T11:53:18Z,42.805,6.029,13.3036,4.60147,2470.927,2023-12-29T13:55:49Z
2023-12-29T11:56:21Z,42.805,6.029,13.3034,4.60135,2470.904,2023-12-29T13:58:52Z
2023-12-29T11:59:24Z,42.805,6.029,13.3036,4.60128,2470.927,2023-12-29T14:01:55Z
2023-12-29T12:02:27Z,42.805,6.029,13.3033,4.60132,2470.95,2023-12-29T14:04:58Z
2023-12-29T12:05:30Z,42.805,6.029,13.3036,4.60130,2470.94,2023-12-29T14:08:01Z
2023-12-29T12:08:33Z,42.805,6.029,13.3033,4.60126,2470.917,2023-12-29T14:11:04Z
2023-12-29T12:11:36Z,42.805,6.029,13.3033,4.60122,2470.917,2023-12-29T14:14:07Z
2023-12-29T12:14:39Z,42.805,6.029,13.3035,4.60125,2470.88,2023-12-29T14:17:10Z
2023-12-29T12:17:42Z,42.805,6.029,13.3032,4.60132,2470.857,2023-12-29T14:20:13Z
2023-12-29T12:20:46Z,42.805,6.029,13.3038,4.60125,2470.94,2023-12-29T14:23:17Z
2023-12-29T12:23:49Z,42.805,6.029,13.3031,4.60122,2470.917,2023-12-29T14:26:20Z
2023-12-29T12:26:52Z,42.805,6.029,13.3034,4.60128,2470.871,2023-12-29T14:29:23Z
2023-12-29T12:29:55Z,42.805,6.029,13.3032,4.60129,2470.894,2023-12-29T14:32:26Z
2023-12-29T12:32:58Z,42.805,6.029,13.3031,4.60127,2470.904,2023-12-29T14:35:29Z
2023-12-29T12:36:01Z,42.805,6.029,13.3034,4.60123,2470.904,2023-12-29T14:38:32Z
2023-12-29T12:39:04Z,42.805,6.029,13.3036,4.60124,2470.894,2023-12-29T14:41:35Z
2023-12-29T12:42:07Z,42.805,6.029,13.3034,4.60125,2470.88,2023-12-29T14:44:38Z
2023-12-29T12:45:10Z,42.805,6.029,13.3032,4.60122,2470.88,2023-12-29T14:47:41Z
2023-12-29T12:48:13Z,42.805,6.029,13.3035,4.60121,2470.871,2023-12-29T14:50:44Z
2023-12-29T12:51:16Z,42.805,6.029,13.3033,4.60121,2470.88,2023-12-29T14:53:47Z
2023-12-29T12:54:20Z,42.805,6.029,13.3031,4.60119,2470.857,2023-12-29T14:56:51Z
2023-12-29T12:57:23Z,42.805,6.029,13.3034,4.60125,2470.871,2023-12-29T14:59:54Z
2023-12-29T13:00:26Z,42.805,6.029,13.3035,4.60122,2470.88,2023-12-29T15:02:57Z
2023-12-29T13:03:29Z,42.805,6.029,13.3033,4.60122,2470.871,2023-12-29T15:06:00Z
2023-12-29T13:06:32Z,42.805,6.029,13.3034,4.60122,2470.88,2023-12-29T15:09:03Z
2023-12-29T13:09:35Z,42.805,6.029,13.3031,4.60122,2470.871,2023-12-29T15:12:06Z
2023-12-29T13:12:38Z,42.805,6.029,13.3030,4.60122,2470.857,2023-12-29T15:15:09Z
2023-12-29T13:15:41Z,42.805,6.029,13.3034,4.60125,2470.847,2023-12-29T15:18:12Z
2023-12-29T13:18:44Z,42.805,6.029,13.3034,4.60120,2470.894,2023-12-29T15:21:15Z
2023-12-29T13:21:47Z,42.805,6.029,13.3034,4.60125,2470.857,2023-12-29T15:24:18Z
2023-12-29T13:24:50Z,42.805,6.029,13.3036,4.60122,2470.857,2023-12-29T15:27:21Z
2023-12-29T13:27:53Z,42.805,6.029,13.3034,4.60127,2470.871,2023-12-29T15:30:24Z
2023-12-29T13:30:57Z,42.805,6.029,13.3031,4.60125,2470.833,2023-12-29T15:33:28Z
2023-12-29T13:34:00Z,42.805,6.029,13.3034,4.60133,2470.871,2023-12-29T15:36:31Z
2023-12-29T13:37:03Z,42.805,6.029,13.3034,4.60126,2470.833,2023-12-29T15:39:34Z
2023-12-29T13:40:06Z,42.805,6.029,13.3035,4.60129,2470.833,2023-12-29T15:42:37Z
2023-12-29T13:43:09Z,42.805,6.029,13.3041,4.60126,2470.871,2023-12-29T15:45:40Z
2023-12-29T13:46:12Z,42.805,6.029,13.3033,4.60125,2470.833,2023-12-29T15:48:43Z
2023-12-29T13:49:15Z,42.805,6.029,13.3033,4.60123,2470.833,2023-12-29T15:51:46Z
2023-12-29T13:52:18Z,42.805,6.029,13.3031,4.60132,2470.82,2023-12-29T15:54:49Z
2023-12-29T13:55:21Z,42.805,6.029,13.3036,4.60119,2470.8,2023-12-29T15:57:52Z
2023-12-29T13:58:24Z,42.805,6.029,13.3035,4.60124,2470.824,2023-12-29T16:00:55Z
2023-12-29T14:01:27Z,42.805,6.029,13.3036,4.60127,2470.787,2023-12-29T16:03:58Z
2023-12-29T14:04:30Z,42.805,6.029,13.3035,4.60126,2470.847,2023-12-29T16:07:01Z
2023-12-29T14:07:34Z,42.805,6.029,13.3034,4.60133,2470.824,2023-12-29T16:10:05Z
2023-12-29T14:10:37Z,42.805,6.029,13.3034,4.60132,2470.81,2023-12-29T16:13:08Z
2023-12-29T14:13:40Z,42.805,6.029,13.3036,4.60121,2470.81,2023-12-29T16:16:11Z
2023-12-29T14:16:43Z,42.805,6.029,13.3035,4.60125,2470.8,2023-12-29T16:19:14Z
2023-12-29T14:19:46Z,42.805,6.029,13.3036,4.60126,2470.824,2023-12-29T16:22:17Z
2023-12-29T14:22:49Z,42.805,6.029,13.3036,4.60122,2470.8,2023-12-29T16:25:20Z
2023-12-29T14:25:52Z,42.805,6.029,13.3036,4.60131,2470.81,2023-12-29T16:28:23Z
2023-12-29T14:28:55Z,42.805,6.029,13.3039,4.60130,2470.847,2023-12-29T16:31:26Z
2023-12-29T14:31:58Z,42.805,6.029,13.3034,4.60132,2470.833,2023-12-29T16:34:29Z
2023-12-29T14:35:01Z,42.805,6.029,13.3039,4.60126,2470.81,2023-12-29T16:37:32Z
2023-12-29T14:38:04Z,42.805,6.029,13.3039,4.60124,2470.81,2023-12-29T16:40:35Z
2023-12-29T14:41:07Z,42.805,6.029,13.3039,4.60119,2470.787,2023-12-29T16:43:38Z
2023-12-29T14:44:11Z,42.805,6.029,13.3034,4.60117,2470.824,2023-12-29T16:46:42Z
2023-12-29T14:47:14Z,42.805,6.029,13.3035,4.60120,2470.81,2023-12-29T16:49:45Z
2023-12-29T14:50:17Z,42.805,6.029,13.3037,4.60119,2470.787,2023-12-29T16:52:48Z
2023-12-29T14:53:20Z,42.805,6.029,13.3036,4.60119,2470.8,2023-12-29T16:55:51Z
2023-12-29T14:56:23Z,42.805,6.029,13.3036,4.60114,2470.81,2023-12-29T16:58:54Z
2023-12-29T14:59:26Z,42.805,6.029,13.3030,4.60117,2470.824,2023-12-29T17:01:57Z
2023-12-29T15:02:29Z,42.805,6.029,13.3035,4.60117,2470.787,2023-12-29T17:05:00Z